Zurück zum Katalog

STARLINK-3929

AktivKommunikationVLEO
NORAD 52567·PAYLOAD·🇺🇸 United States

Gestartet May 13, 2022 von Vandenberg Space Force Base

Loading…

Nächste Überflüge (nächste 24 Stunden)

TLE

AktuellSource: CelesTrak SupGP

Epoche: Sep 14, 2026, 20:34 UTC

1 52567C 22051AL  26257.85743056 -.00031620  00000+0 -93428-3 0  2574
2 52567  53.1577 334.1322 0001238  81.9693 345.4637 15.34404382    10

Verfolge STARLINK-3929 in Echtzeit mit AllMySat

Download on the App Store